V.C. Bird, Antigua

5:50 AM AST on November 25, 2017 (GMT -0400)
V C Bird International

Weather History for TAPA - March, 2013

Change the Weather History Date:

Friday, March 15, 2013

  Actual Average Record
Temperature  
Mean Temperature 74 °F -  
Max Temperature 83 °F 82 °F 87 °F (1998)
Min Temperature 66 °F 73 °F 66 °F (2013)
Cooling Degree Days 10    
Growing Degree Days 24 (Base 50)    
Moisture  
Dew Point 62 °F    
Average Humidity 61    
Maximum Humidity 83    
Minimum Humidity 36    
Precipitation  
Precipitation 0.00 in - - ()
Sea Level Pressure  
Sea Level Pressure 29.95 in    
Wind  
Wind Speed 4 mph ()    
Max Wind Speed 10 mph    
Max Gust Speed -    
Visibility 9.1 miles    
Events      
Averages and records for this station are not official NWS values.
T = Trace of Precipitation, MM = Missing Value Source: Averaged Metar Reports

Daily Weather History Graph

Daily Weather History Graph

Search for Another Location

Airport or City:

Trip Planner

Search our weather history database for the weather conditions in past years. The results will help you decide how hot, cold, wet, or windy it might be!

Date:

Astronomy

Mar. 15, 2013 Rise Set
Actual Time 6:14 AM AST 6:17 PM AST
Civil Twilight 5:53 AM AST 6:38 PM AST
Nautical Twilight 5:28 AM AST 7:03 PM AST
Astronomical Twilight 5:03 AM AST 7:29 PM AST
Moon 8:40 AM AST (3/15) 9:45 PM AST (3/15)
Length of Visible Light 12h 45m
Length of Day
12h 02m
Waxing Crescent, 15% of the Moon is Illuminated
Mar 15
Waxing Crescent
Mar 19
First Quarter
Mar 27
Full
Apr 3
Last Quarter
Apr 10
New

Hourly Weather History & Observations

Time (AST) Temp. Heat Index Dew Point Humidity Pressure Visibility Wind Dir Wind Speed Gust Speed Precip Events Conditions
12:00 AM 71.6 °F - 60.8 °F 69% 29.95 in 6.2 mi Variable 1.2 mph - N/A   Partly Cloudy
1:00 AM 69.8 °F - 60.8 °F 73% 29.95 in 6.2 mi Calm Calm - N/A   Partly Cloudy
2:00 AM 67 °F - 61 °F 75% 29.93 in 19 mi Calm Calm - -   Partly Cloudy
2:00 AM 68.0 °F - 60.8 °F 78% 29.92 in 6.2 mi Calm Calm - N/A   Scattered Clouds
3:00 AM 68.0 °F - 62.6 °F 83% 29.92 in 6.2 mi Calm Calm - N/A   Mostly Cloudy
4:00 AM 69.8 °F - 62.6 °F 78% 29.92 in 6.2 mi Variable 2.3 mph - N/A   Mostly Cloudy
5:00 AM 69 °F - 62 °F 74% 29.94 in 19 mi WSW 4.6 mph - -   Partly Cloudy
5:00 AM 69.8 °F - 62.6 °F 78% 29.92 in 6.2 mi WSW 4.6 mph - N/A   Mostly Cloudy
6:00 AM 66.2 °F - 60.8 °F 83% 29.92 in 6.2 mi South 5.8 mph - N/A   Partly Cloudy
7:00 AM 71.6 °F - 62.6 °F 73% 29.95 in 6.2 mi Calm Calm - N/A   Scattered Clouds
8:00 AM 78 °F - 63 °F 51% 29.98 in 19 mi East 5.8 mph - -   Scattered Clouds
8:00 AM 78.8 °F - 62.6 °F 57% 29.98 in 6.2 mi East 5.8 mph - N/A   Partly Cloudy
9:00 AM 80.6 °F 81.5 °F 60.8 °F 51% 29.98 in 6.2 mi ESE 5.8 mph - N/A   Partly Cloudy
10:00 AM 80.6 °F 80.8 °F 57.2 °F 45% 30.01 in 6.2 mi East 6.9 mph - N/A   Partly Cloudy
11:00 AM 82 °F - 59 °F 36% 30.00 in 19 mi ENE 9.2 mph - -   Partly Cloudy
11:00 AM 82.4 °F 82.5 °F 59.0 °F 45% 29.98 in 6.2 mi ENE 9.2 mph - N/A   Scattered Clouds
12:00 PM 80.6 °F 81.5 °F 60.8 °F 51% 29.98 in 6.2 mi East 9.2 mph - N/A   Partly Cloudy
1:00 PM 80.6 °F 81.8 °F 62.6 °F 54% 29.95 in 6.2 mi East 10.4 mph - N/A   Mostly Cloudy
2:00 PM 82 °F - 62 °F 40% 29.94 in 19 mi East 8.1 mph - -   Scattered Clouds
2:00 PM 82.4 °F 83.4 °F 62.6 °F 51% 29.92 in 6.2 mi East 8.1 mph - N/A   Mostly Cloudy
3:00 PM 80.6 °F 81.5 °F 60.8 °F 51% 29.92 in 6.2 mi East 9.2 mph - N/A   Mostly Cloudy
4:00 PM 80.6 °F 81.8 °F 62.6 °F 54% 29.92 in 6.2 mi East 8.1 mph - N/A   Mostly Cloudy
5:00 PM 79 °F - 62 °F 47% 29.93 in 19 mi East 8.1 mph - -   Scattered Clouds
5:00 PM 78.8 °F - 62.6 °F 57% 29.92 in 6.2 mi East 8.1 mph - N/A   Scattered Clouds
6:00 PM 77.0 °F - 62.6 °F 61% 29.92 in 6.2 mi East 6.9 mph - N/A   Scattered Clouds
7:00 PM 75.2 °F - 62.6 °F 65% 29.95 in 6.2 mi East 5.8 mph - N/A   Partly Cloudy
8:00 PM 76 °F - 62 °F 53% 29.96 in 19 mi East 6.9 mph - -   Scattered Clouds
8:00 PM 75.2 °F - 62.6 °F 65% 29.95 in 6.2 mi East 6.9 mph - N/A   Partly Cloudy
9:00 PM 75.2 °F - 62.6 °F 65% 29.98 in 6.2 mi ENE 6.9 mph - N/A   Partly Cloudy
10:00 PM 75.2 °F - 62.6 °F 65% 29.98 in 6.2 mi ENE 5.8 mph - N/A   Partly Cloudy
11:00 PM 75.2 °F - 62.6 °F 65% 29.98 in 6.2 mi ENE 8.1 mph - N/A   Partly Cloudy